Weather History for KTUL - November, 2013

Change the Weather History Date:

Saturday, November 16, 2013

  Actual Average Record
Temperature  
Mean Temperature 65 °F 50 °F  
Max Temperature 74 °F 61 °F 83 °F (1963)
Min Temperature 55 °F 39 °F 14 °F (1932)
Degree Days  
Heating Degree Days 0 15  
Month to date heating degree days 203 191  
Since 1 July heating degree days 386 377  
Growing Degree Days 15 (Base 50)    
Moisture  
Dew Point 56 °F    
Average Humidity 70    
Maximum Humidity 86    
Minimum Humidity 53    
Precipitation  
Precipitation 0.08 in 0.09 in 1.85 in (1996)
Month to date precipitation 1.56 1.66  
Year to date precipitation 30.96 37.33  
Sea Level Pressure  
Sea Level Pressure 29.63 in    
Wind  
Wind Speed 21 mph (South)    
Max Wind Speed 31 mph    
Max Gust Speed 41 mph    
Visibility 9 miles    
Events Rain    
T = Trace of Precipitation, MM = Missing Value Source: NWS Daily Summary

Daily Weather History Graph

Daily Weather History Graph

Search for Another Location

Airport or City:

Trip Planner

Search our weather history database for the weather conditions in past years. The results will help you decide how hot, cold, wet, or windy it might be!

Date:

Astronomy

Nov. 16, 2013 Rise Set
Actual Time 7:01 AM CST 5:14 PM CST
Civil Twilight 6:34 AM CST 5:42 PM CST
Nautical Twilight 6:03 AM CST 6:13 PM CST
Astronomical Twilight 5:32 AM CST 6:43 PM CST
Moon 4:49 PM CST (11/16) 6:00 AM CST (11/16)
Length of Visible Light 11h 07m
Length of Day
10h 12m
Waxing Gibbous, 99% of the Moon is Illuminated
Nov 16
Waxing Gibbous
Nov 17
Full
Nov 25
Last Quarter
Dec 2
New
Dec 9
First Quarter

Hourly Weather History & Observations

Time (CST) Temp. Dew Point Humidity Pressure Visibility Wind Dir Wind Speed Gust Speed Precip Events Conditions
12:53 AM 55.9 °F 51.1 °F 84% 29.78 in 9.0 mi South 18.4 mph 25.3 mph N/A   Overcast
1:41 AM 55.9 °F 51.1 °F 84% 29.75 in 9.0 mi South 18.4 mph 25.3 mph N/A   Overcast
1:53 AM 55.9 °F 51.1 °F 84% 29.74 in 9.0 mi SSE 16.1 mph - N/A   Overcast
2:53 AM 55.9 °F 52.0 °F 87% 29.73 in 9.0 mi SSE 16.1 mph 25.3 mph N/A   Overcast
2:59 AM 55.9 °F 52.0 °F 87% 29.73 in 9.0 mi SSE 17.3 mph 24.2 mph N/A   Mostly Cloudy
3:53 AM 57.0 °F 52.0 °F 83% 29.71 in 9.0 mi SSE 13.8 mph 24.2 mph N/A   Mostly Cloudy
4:19 AM 57.0 °F 53.1 °F 87% 29.72 in 9.0 mi SSE 11.5 mph - N/A   Mostly Cloudy
4:40 AM 57.0 °F 53.1 °F 87% 29.71 in 9.0 mi SE 13.8 mph - N/A   Overcast
4:53 AM 57.9 °F 53.1 °F 84% 29.69 in 9.0 mi SSE 11.5 mph - N/A   Overcast
5:53 AM 63.0 °F 55.9 °F 78% 29.68 in 10.0 mi South 23.0 mph 29.9 mph N/A   Overcast
6:53 AM 63.0 °F 57.0 °F 81% 29.67 in 10.0 mi South 23.0 mph 28.8 mph 0.00 in Rain Light Rain
7:53 AM 63.0 °F 57.0 °F 81% 29.70 in 4.0 mi South 21.9 mph 26.5 mph 0.06 in Rain Rain
8:53 AM 63.0 °F 57.0 °F 81% 29.69 in 6.0 mi South 19.6 mph - 0.01 in Rain Light Rain
9:53 AM 64.0 °F 57.0 °F 78% 29.67 in 7.0 mi South 25.3 mph 32.2 mph 0.00 in Rain Light Rain
10:53 AM 64.9 °F 57.0 °F 75% 29.63 in 10.0 mi South 24.2 mph 41.4 mph 0.01 in Rain Light Rain
11:53 AM 66.9 °F 57.9 °F 73% 29.62 in 10.0 mi South 20.7 mph 33.4 mph 0.00 in   Mostly Cloudy
12:53 PM 71.1 °F 57.0 °F 61% 29.57 in 10.0 mi South 25.3 mph 31.1 mph N/A   Mostly Cloudy
1:53 PM 73.9 °F 55.9 °F 53% 29.54 in 10.0 mi South 26.5 mph 36.8 mph N/A   Mostly Cloudy
2:53 PM 73.0 °F 55.9 °F 55% 29.52 in 10.0 mi South 20.7 mph 29.9 mph N/A   Mostly Cloudy
3:53 PM 73.0 °F 55.9 °F 55% 29.52 in 10.0 mi South 21.9 mph 32.2 mph N/A   Mostly Cloudy
4:53 PM 71.1 °F 57.9 °F 63% 29.52 in 10.0 mi South 17.3 mph - 0.00 in Rain Light Rain
5:53 PM 70.0 °F 57.0 °F 63% 29.53 in 10.0 mi South 20.7 mph 27.6 mph 0.00 in   Scattered Clouds
6:53 PM 69.1 °F 57.9 °F 68% 29.54 in 10.0 mi South 25.3 mph 31.1 mph N/A   Partly Cloudy
7:53 PM 68.0 °F 59.0 °F 73% 29.54 in 10.0 mi South 19.6 mph - N/A   Partly Cloudy
8:53 PM 66.9 °F 60.1 °F 79% 29.53 in 10.0 mi South 23.0 mph - N/A   Clear
9:53 PM 69.1 °F 61.0 °F 75% 29.52 in 10.0 mi South 23.0 mph 32.2 mph N/A   Clear
10:53 PM 70.0 °F 62.1 °F 76% 29.52 in 10.0 mi South 23.0 mph 31.1 mph N/A   Partly Cloudy
11:53 PM 70.0 °F 62.1 °F 76% 29.52 in 10.0 mi South 18.4 mph 29.9 mph N/A   Partly Cloudy